[[{"header":{"parameterUnit":"m.s-1","parameterCategory":1,"la1":30.2991,"la2":30.254,"lo1":-89.0895,"lo2":-89.0444,"dy":0.0017,"dx":0.0017,"nx":28,"ny":28,"refTime":"2025-06-14T03:00:00:Z","depth":0,"parameterNumber":2,"parameterNumberName":"U-component_of_WINDS"},"data":[0,0,0,0,0,0,0,0,0,0,0,0,0,0,0,0,0,0,0,0,0,0,0,0,0,0,0,0,0,0,0,0,0,0,0,0,0,0,0,0,0,0,0,0,0,0,0,0,0,0,0,0,0,0,0,0,0,0,1.3738,1.3741,0,1.4067,1.4071,1.4075,1.4218,1.4217,1.4217,1.4216,1.4552,1.4561,1.457,0,0,0,0,0,0,0,0,0,0,0,0,0,1.3231,1.324,1.3737,1.3741,1.3746,1.4066,1.4071,1.4076,1.4218,1.4217,1.4217,1.4216,1.4549,1.456,1.4571,0,0,0,0,0,0,0,0,0,0,0,0,0,1.3495,1.3242,1.3737,1.3855,1.3869,1.4066,1.4071,1.4077,1.4218,1.4217,1.4216,1.4216,1.4545,1.4559,1.4573,1.4675,0,0,1.4616,1.4622,0,0,0,0,0,0,0,0,1.348,1.3513,1.3834,1.3848,1.3863,1.4101,1.4016,1.4277,1.4218,1.4085,1.4216,1.4215,1.4402,1.4428,1.4492,1.4691,1.4705,1.4617,1.4626,1.4632,1.4636,0,0,0,0,0,0,0,1.3461,1.35,1.3868,1.3838,1.3856,1.3892,1.3929,1.4066,1.4244,1.4097,1.4108,1.4145,1.441,1.4478,1.45,1.471,1.4617,1.4629,1.4638,1.4644,1.5012,1.5013,0,0,0,0,0,0,1.3423,1.3484,1.3857,1.3878,1.3666,1.3902,1.3943,1.4025,1.4243,1.4276,1.4146,1.4151,1.4454,1.4484,1.4513,1.4648,1.4632,1.4645,1.4653,1.501,1.5012,1.5013,0,0,0,0,0,0,1.3412,1.3455,1.3844,1.3684,1.3736,1.3911,1.4003,1.4032,1.41,1.428,1.4312,1.4182,1.4454,1.4493,1.4634,1.4662,1.4651,1.4664,1.5009,1.5011,1.5013,1.4918,0,0,0,0,0,0,1.3397,1.345,1.3491,1.3684,1.3744,1.396,1.4005,1.4039,1.4124,1.4134,1.4322,1.4353,1.4457,1.4612,1.4648,1.4681,1.4675,1.5007,1.501,1.5012,1.492,1.4917,1.4914,0,0,0,0,0,1.3378,1.3451,1.3492,1.3537,1.3799,1.3961,1.3996,1.4114,1.4125,1.4168,1.4284,1.4347,1.4653,1.4626,1.4667,1.4705,1.5006,1.5009,1.5012,1.4921,1.4917,1.4914,0,0,0,0,0,0,1.3256,1.3478,1.3527,1.3664,1.3793,1.3985,1.4042,1.4107,1.4234,1.4238,1.438,1.4421,1.455,1.4642,1.4608,1.4816,1.4835,1.4846,1.4751,1.4749,1.4747,1.4722,1.4687,0,0,0,0,0,1.3245,1.3359,1.3547,1.3649,1.3712,1.3865,1.394,1.4021,1.416,1.4215,1.4341,1.4473,1.46,1.4679,1.4806,1.4934,1.4977,1.498,1.4977,1.4974,1.4982,1.5058,1.5061,1.5023,1.5023,1.5023,0,0,1.3224,1.3359,1.3422,1.3628,1.3738,1.3852,1.391,1.4029,1.4115,1.4233,1.4375,1.4471,1.4628,1.4763,1.4829,1.4844,1.5002,1.4978,1.4974,1.4984,1.5061,1.5064,1.5067,1.5025,1.5025,1.5024,0,0,1.3244,1.3357,1.3456,1.3564,1.3729,1.3831,1.3854,1.4038,1.4107,1.4251,1.4342,1.4447,1.4661,1.477,1.4852,1.4914,1.4977,1.4951,1.4936,1.5008,1.5011,1.5015,1.5037,1.5043,1.4958,1.4958,1.4958,0,1.3196,1.3372,1.3498,1.3612,1.37,1.3813,1.3914,1.4013,1.421,1.4268,1.4282,1.4554,1.4667,1.483,1.4845,1.4908,1.494,1.493,1.5001,1.5005,1.5011,1.5034,1.5041,1.4954,1.4954,1.4955,1.4955,0,1.3306,1.3427,1.3487,1.3675,1.377,1.3877,1.4019,1.41,1.4172,1.4272,1.4418,1.4558,1.4715,1.476,1.4831,1.4933,1.4937,1.4973,1.4996,1.5008,1.5032,1.5042,1.4948,1.4949,1.4951,1.4952,0,0,1.3258,1.3515,1.3535,1.3622,1.3813,1.3909,1.402,1.4175,1.4242,1.4374,1.4472,1.4651,1.4686,1.478,1.4865,1.4928,1.4968,1.4958,1.4964,1.4955,1.509,1.5061,1.507,1.5011,1.5013,1.5015,1.5077,0,1.3304,1.351,1.3627,1.3784,1.3898,1.4007,1.4105,1.4232,1.4329,1.4439,1.4546,1.4671,1.4708,1.4766,1.4833,1.4949,1.4997,1.4946,1.5104,1.5108,1.5061,1.5082,1.5053,1.5104,1.5087,1.5089,1.509,0,1.3385,1.3516,1.3685,1.3864,1.3916,1.4001,1.4152,1.4257,1.4403,1.447,1.4575,1.4659,1.4782,1.4794,1.4965,1.4927,1.4999,1.5065,1.507,1.509,1.51,1.5103,1.5124,1.5131,1.5106,1.5105,1.5104,0,1.3334,1.3552,1.3682,1.3753,1.3964,1.4022,1.4113,1.4259,1.4344,1.4476,1.4533,1.4677,1.4756,1.4865,1.4986,1.4984,1.5146,1.5167,1.5204,1.5201,1.5233,1.523,1.5266,1.5278,1.5278,1.5278,1.5278,0,1.3373,1.3472,1.3662,1.3742,1.3856,1.3989,1.4099,1.4198,1.4328,1.4429,1.4531,1.4624,1.4778,1.489,1.4985,1.5113,1.5147,1.5204,1.5228,1.5195,1.5188,1.5244,1.5244,1.528,1.5279,1.5279,1.5279,0,1.3335,1.3466,1.3615,1.3803,1.3852,1.3928,1.409,1.4171,1.4273,1.44,1.4437,1.4598,1.4735,1.4867,1.505,1.5114,1.5241,1.5273,1.5192,1.5205,1.5234,1.523,1.5309,1.5326,1.5324,1.5324,1.5324,0,1.3352,1.3431,1.3628,1.3703,1.3792,1.3911,1.3999,1.4133,1.4221,1.4394,1.4455,1.4599,1.4722,1.4936,1.5069,1.521,1.5246,1.5264,1.5268,1.5232,1.5247,1.5241,1.525,1.526,1.526,1.5259,1.5259,0,1.3368,1.3429,1.3552,1.3698,1.38,1.3921,1.4046,1.4101,1.4259,1.4352,1.4494,1.4589,1.4777,1.4919,1.5075,1.5169,1.524,1.5256,1.5273,1.524,1.519,1.5218,1.5183,1.5254,1.5255,1.5255,1.5255,1.5255,1.336,1.3435,1.3585,1.3719,1.3827,1.3941,1.4027,1.414,1.4261,1.4424,1.4496,1.4639,1.4785,1.5002,1.5095,1.5209,1.5226,1.5248,1.5255,1.5258,1.5251,1.5171,1.5237,1.5238,1.5238,1.5238,1.5238,0,1.3381,1.3484,1.3605,1.3776,1.3881,1.394,1.4081,1.4165,1.429,1.442,1.4539,1.4701,1.484,1.4984,1.5131,1.5195,1.5231,1.5229,1.5225,1.5246,1.5227,1.5199,1.5197,1.5197,1.5197,1.5197,1.5197,1.5197,1.3405,1.3537,1.3615,1.3801,1.3903,1.4044,1.412,1.4226,1.433,1.4508,1.4624,1.4717,1.4853,1.501,1.514,1.5179,1.5229,1.5217,1.5265,1.5245,1.5247,1.525,1.5224,1.5227,1.5227,1.5275,1.5275,1.5275]},{"header":{"parameterUnit":"m.s-1","parameterCategory":1,"la1":30.2991,"la2":30.254,"lo1":-89.0895,"lo2":-89.0444,"dy":0.0017,"dx":0.0017,"nx":28,"ny":28,"refTime":"2025-06-14T03:00:00:Z","depth":0,"parameterNumber":3,"parameterNumberName":"V-component_of_WINDS"},"data":[0,0,0,0,0,0,0,0,0,0,0,0,0,0,0,0,0,0,0,0,0,0,0,0,0,0,0,0,0,0,0,0,0,0,0,0,0,0,0,0,0,0,0,0,0,0,0,0,0,0,0,0,0,0,0,0,0,0,2.091,2.0912,0,2.1073,2.1075,2.1077,2.1123,2.1122,2.1121,2.112,2.128,2.1285,2.129,0,0,0,0,0,0,0,0,0,0,0,0,0,2.063,2.0635,2.091,2.0912,2.0914,2.1073,2.1075,2.1077,2.1123,2.1122,2.1121,2.112,2.1279,2.1285,2.1291,0,0,0,0,0,0,0,0,0,0,0,0,0,2.0768,2.0637,2.091,2.0956,2.0962,2.1072,2.1075,2.1078,2.1123,2.1122,2.1121,2.112,2.1277,2.1284,2.1291,2.1365,0,0,2.1315,2.1318,0,0,0,0,0,0,0,0,2.076,2.0778,2.0948,2.0953,2.096,2.1077,2.1035,2.1174,2.1124,2.1062,2.112,2.1119,2.1213,2.1226,2.1259,2.1372,2.1379,2.1315,2.132,2.1323,2.1325,0,0,0,0,0,0,0,2.0751,2.0771,2.0974,2.095,2.0958,2.0966,2.0984,2.1061,2.1143,2.1067,2.1071,2.109,2.1216,2.1252,2.1263,2.1381,2.1315,2.1322,2.1327,2.133,2.1559,2.1561,0,0,0,0,0,0,2.0734,2.0763,2.0969,2.0979,2.0855,2.0972,2.0993,2.104,2.1142,2.1156,2.1091,2.1092,2.1239,2.1254,2.1269,2.1359,2.1323,2.133,2.1335,2.1558,2.156,2.1561,0,0,0,0,0,0,2.0728,2.0752,2.0963,2.0872,2.09,2.0979,2.1032,2.1044,2.108,2.116,2.1174,2.1113,2.1239,2.1258,2.134,2.1366,2.1334,2.1341,2.1556,2.1558,2.156,2.1542,0,0,0,0,0,0,2.072,2.075,2.0781,2.0873,2.0905,2.1034,2.1033,2.1048,2.1094,2.1096,2.1184,2.1197,2.1239,2.1329,2.1348,2.1375,2.1347,2.1554,2.1557,2.156,2.154,2.1543,2.1545,0,0,0,0,0,2.071,2.0768,2.0782,2.0806,2.0945,2.1035,2.1053,2.1102,2.1096,2.1125,2.1177,2.1195,2.136,2.1337,2.1359,2.1389,2.1553,2.1556,2.156,2.1539,2.1543,2.1545,0,0,0,0,0,0,2.0674,2.0781,2.0798,2.0888,2.0952,2.1043,2.1083,2.1104,2.117,2.1169,2.1225,2.1244,2.1322,2.1364,2.1336,2.1463,2.1456,2.1464,2.1433,2.1437,2.144,2.1427,2.1353,0,0,0,0,0,2.0678,2.0745,2.0833,2.0904,2.0936,2.1003,2.1044,2.1077,2.1144,2.1171,2.1229,2.1292,2.1358,2.14,2.1465,2.1547,2.1565,2.1578,2.1581,2.1582,2.1588,2.1631,2.1637,2.1573,2.1573,2.1573,0,0,2.0684,2.075,2.0789,2.0898,2.0952,2.1017,2.1026,2.1095,2.1143,2.1181,2.1262,2.1306,2.138,2.1462,2.15,2.1499,2.161,2.1587,2.1587,2.1592,2.1635,2.1641,2.1647,2.1575,2.1575,2.1574,0,0,2.0729,2.0787,2.0851,2.0905,2.0987,2.1031,2.1046,2.1134,2.1165,2.1248,2.1277,2.1333,2.1447,2.1497,2.1538,2.1599,2.1617,2.1619,2.1631,2.1673,2.1678,2.1683,2.1702,2.1709,2.1625,2.1625,2.1625,0,2.0725,2.0828,2.0881,2.0949,2.0994,2.1034,2.1097,2.1146,2.1244,2.1273,2.1271,2.1412,2.1465,2.1557,2.1572,2.1605,2.1621,2.1609,2.1673,2.1679,2.1684,2.1703,2.1711,2.1624,2.1624,2.1624,2.1624,0,2.0818,2.0888,2.093,2.1025,2.1076,2.1141,2.1201,2.1245,2.1272,2.1316,2.1397,2.1462,2.154,2.1565,2.1591,2.166,2.1656,2.1663,2.1657,2.1689,2.1707,2.1716,2.1623,2.1624,2.1624,2.1624,0,0,2.0846,2.0969,2.0983,2.1026,2.1118,2.1172,2.1237,2.1315,2.1351,2.1416,2.147,2.1564,2.157,2.1616,2.1649,2.1685,2.1727,2.1687,2.169,2.1691,2.1803,2.1797,2.1805,2.174,2.1741,2.1743,2.1796,0,2.09,2.1022,2.1071,2.1167,2.1231,2.1268,2.1324,2.1385,2.1427,2.1484,2.153,2.1595,2.1599,2.1627,2.1665,2.1714,2.175,2.1711,2.1787,2.179,2.1767,2.1815,2.1809,2.1857,2.1804,2.1806,2.1807,0,2.0981,2.1049,2.1152,2.1235,2.1263,2.1313,2.1387,2.1443,2.1511,2.1539,2.1589,2.162,2.1686,2.1676,2.1766,2.1739,2.1773,2.1801,2.1804,2.1812,2.1799,2.1822,2.1874,2.188,2.1819,2.1818,2.1817,0,2.0988,2.1104,2.1181,2.1217,2.1316,2.1349,2.1391,2.1459,2.1502,2.1566,2.1594,2.1663,2.1701,2.1753,2.18,2.1789,2.1885,2.188,2.1908,2.1906,2.1925,2.1923,2.1981,2.195,2.195,2.1949,2.1949,0,2.1043,2.1104,2.1185,2.1232,2.1301,2.1355,2.142,2.1465,2.1524,2.1578,2.1614,2.1662,2.1722,2.1778,2.1815,2.1883,2.19,2.1922,2.1931,2.1918,2.1915,2.194,2.1937,2.1951,2.1951,2.1951,2.195,0,2.1062,2.1119,2.1205,2.1291,2.1314,2.1361,2.1433,2.1478,2.1522,2.1589,2.1608,2.1675,2.1742,2.1794,2.1882,2.1906,2.1977,2.1987,2.1954,2.1959,2.1983,2.1979,2.2058,2.207,2.2031,2.2032,2.2032,0,2.1093,2.1141,2.1233,2.1272,2.1315,2.1378,2.1422,2.1476,2.152,2.1601,2.1635,2.1706,2.1765,2.187,2.1925,2.1991,2.2002,2.2025,2.2012,2.1997,2.2,2.1996,2.2,2.2026,2.2026,2.2026,2.2026,0,2.114,2.1166,2.123,2.1303,2.1355,2.1415,2.1475,2.1504,2.1569,2.1616,2.1686,2.1732,2.1821,2.1889,2.1961,2.2001,2.2023,2.203,2.2039,2.2026,2.2005,2.2015,2.1957,2.2028,2.2027,2.2027,2.2027,2.2027,2.1165,2.1209,2.128,2.1349,2.14,2.1455,2.1501,2.1551,2.1611,2.1689,2.1717,2.1788,2.1852,2.1951,2.1992,2.2046,2.2047,2.2062,2.2065,2.2067,2.2065,2.1997,2.206,2.206,2.206,2.206,2.206,0,2.1213,2.126,2.1324,2.1407,2.146,2.1479,2.1546,2.1588,2.1652,2.1711,2.1769,2.1848,2.1914,2.1973,2.2041,2.2073,2.2085,2.2089,2.2086,2.2095,2.2061,2.2046,2.2078,2.2078,2.2078,2.2078,2.2078,2.2078,2.1244,2.1318,2.1352,2.145,2.1497,2.1569,2.1605,2.1655,2.1702,2.179,2.1846,2.1885,2.1943,2.2016,2.2076,2.2091,2.2113,2.2115,2.2132,2.21,2.2097,2.2095,2.208,2.212,2.212,2.2161,2.2162,2.2162]}]]